Location: Bettgenhausen
(50.6463°N, 7.5681°E)
Time: 00:20:35
(UTC+00:00)

STARLINK-74 - Pass Details

Date: 27 February 2020
Orbit: 529 x 530 km, 53.0° (Epoch: 09 April)

Event Time Altitude Azimuth Distance (km) Brightness Sun altitude
Rises 19:01:52 0° 281° (WNW) 2,671 8.8 -19.0°
Reaches altitude 10° 19:04:06 10° 285° (WNW) 1,781 7.5 -19.3°
Maximum altitude 19:08:07 64° 7° (N) 592 3.7 -19.9°
Enters shadow 19:08:49 52° 57° (ENE) 662 3.7 -20.0°
